Flag for U.S.A. Weather past 2 weeks in Clarksville, Tennessee, U.S.A.

Now
44 °F

Overcast.


Feels Like: 38 °F
Forecast: 38 / 54 °F
Wind: 12 mph from North

Location: Outlaw Field

Current Time: Mar 26, 2015 at 5:55:04 PM

Latest Report: Mar 26, 2015 at 4:52 PM


Visibility: 10 mi

Pressure: 29.96 "Hg

Humidity: 89%

Dew point: 41 °F

Location of ClarksvilleLocation

Historic Weather in Clarksville — Graph

°F

Clarksville temperature yesterday

Maximum temperature yesterday: 76 °F (at 1:52 PM)
Minimum temperature yesterday: 59 °F (at 6:52 AM)
Average temperature yesterday: 67 °F

Past Weeks' High & Low Weather Summary

 TemperatureHumidityPressure
High77 °F (Mar 16, 3:52 PM)100% (Mar 11, 11:52 PM)30.35 "Hg (Mar 11, 11:52 PM)
Low36 °F (Mar 12, 4:54 AM)28% (Mar 23, 3:52 PM)29.82 "Hg (Mar 26, 3:52 AM)
Average54 °F71%30.11 "Hg
* Reported Mar 11 4:52 PM — Mar 26 4:52 PM, Clarksville, Weather by CustomWeather, © 2015

Note: Actual official high and low records may vary slightly from our data, if they occured in-between our weather recording intervals... More about our weather records

Advertising

Clarksville weather history for previous 24 hours

 ConditionsComfort  
Time TempWeatherWind HumidityBarometerVisibility
4:52 PM
Thu, Mar 26
44 °FOvercast.12 mph89%29.96 "Hg10 mi
3:52 PM44 °FLight rain. More clouds than sun.20 mph89%29.96 "Hg10 mi
2:52 PM44 °FLight rain. Fog.20 mph96%29.96 "Hg2 mi
1:52 PM45 °FLight rain. Fog.14 mph97%29.95 "Hg2 mi
12:52 PM48 °FMostly cloudy.15 mph89%29.93 "Hg8 mi
11:52 AM49 °FOvercast.15 mph86%29.92 "Hg10 mi
10:52 AM49 °FLight rain. Fog.10 mph93%29.92 "Hg2 mi
9:52 AM50 °FLow clouds.14 mph93%29.92 "Hg10 mi
8:52 AM52 °FLight rain. Fog.15 mph93%29.90 "Hg3 mi
7:52 AM54 °FFog.6 mph93%29.86 "Hg2 mi
6:59 AM53 °FLight rain. Fog.5 mph96%29.87 "Hg2 mi
5:52 AM54 °FFog.3 mph93%29.84 "Hg2 mi
5:00 AM55 °FFog.13 mph96%29.86 "Hg3 mi
3:52 AM60 °FMostly cloudy.6 mph93%29.82 "Hg10 mi
2:52 AM65 °FLight rain. Mostly cloudy.9 mph70%29.83 "Hg5 mi
1:52 AM65 °FMostly cloudy.8 mph68%29.86 "Hg10 mi
12:52 AM67 °FPassing clouds.8 mph63%29.86 "Hg10 mi
11:52 PM
Wed, Mar 25
66 °FOvercast.7 mph65%29.88 "Hg10 mi
10:52 PM67 °FOvercast.5 mph66%29.90 "Hg10 mi
9:52 PM65 °FClear.5 mph68%29.92 "Hg10 mi
8:52 PM66 °FClear.8 mph65%29.93 "Hg10 mi
7:52 PM68 °FClear.8 mph61%29.93 "Hg10 mi
6:52 PM71 °FSunny.12 mph55%29.93 "Hg10 mi
5:52 PM75 °FSunny.9 mph45%29.95 "Hg10 mi
Weather by CustomWeather, © 2015

See weather overviewHow to use our weather pages